Location: Bo?a Wola
(50.4192°N, 19.7966°E)
Time: 04:39:08
(UTC+00:00)

CZ-4C R/B - Pass Details

Date: 18 September 2024
Orbit: 519 x 1471 km, 63.4° (Epoch: 09 October)

Event Time Altitude Azimuth Distance (km) Brightness Sun altitude
Exits shadow 00:22:12 43° 4° (N) 1,128 3.1 -33.0°
Drops below altitude 10° 00:26:55 10° 40° (NE) 2,661 5.6 -32.6°
Sets 00:29:55 0° 46° (NE) 3,778 6.6 -32.3°
